Regional Weather Roundup
Issued by NWS

Home | Current Version | Previous Version | Text Only | Print | Product List | Glossary Off
Versions: 1 2 3 4 5 6 7 8 9 10 11 12 13 14 15 16 17 18 19 20 21 22 23 24 25 26 27 28 29 30 31 32 33 34 35 36 37 38 39 40 41 42 43 44 45 46 47 48 49 50

000
ASUS45 KTFX 231719
RWRMT
MONTANA HOURLY WEATHER ROUNDUP
NATIONAL WEATHER SERVICE GREAT FALLS MT
1119 AM MDT THU OCT 23 2014

NOTE: "FAIR" INDICATES FEW OR NO CLOUDS BELOW 12000 FEET WITH NO
SIGNIFICANT WEATHER AND/OR OBSTRUCTIONS TO VISIBILITY.

* THESE STATIONS ARE NOT UNDER NWS QUALITY CONTROL. THEY DO NOT
   REPORT WEATHER SUCH AS PRECIPITATION OR FOG.

MTZ001>007-043-231800-
WEST OF THE DIVIDE
CITY           SKY/WX    TMP DP  RH WIND       PRES   REMARKS
KALISPELL      LGT RAIN  48  48 100 S6        29.83F
MISSOULA       CLOUDY    54  43  67 SE8       29.90R
BUTTE          CLOUDY    50  34  54 NE5       30.02R
MULLAN PASS    LGT RAIN  39  39 100 S14G25    29.85F VSB M1/4 WCI  31
* ESSEX        N/A       45  44  96 E1G6       N/A
* LOOKOUT PASS N/A       45  43  93 S5G16      N/A
* POLSON       N/A       47  47 100 S1         N/A
* RONAN APT    CLOUDY    52  45  77 SE7        N/A
$$

MTZ008-052>055-231800-
SOUTHWEST MONTANA
CITY           SKY/WX    TMP DP  RH WIND       PRES   REMARKS
BOZEMAN        CLOUDY    54  37  53 CALM      29.99S
DILLON         PTSUNNY   54  34  47 SW9       30.03R
W YELLOWSTONE  CLOUDY    45  23  42 S7        30.15R
* THREE FORKS  CLOUDY    54  41  62 N/A        N/A
* BOULDER HILL N/A       51  31  46 S16G21     N/A
* MONIDA PASS  N/A       46  25  44 SE14       N/A
$$

MTZ009>010-012-014-046-048-049-054-231800-
EAST SLOPES AND CENTRAL MONTANA
CITY           SKY/WX    TMP DP  RH WIND       PRES   REMARKS
CUT BANK       CLOUDY    55  39  55 SW23G28   29.78S
GREAT FALLS    CLOUDY    57  37  47 SW22G32   29.83R
HELENA         CLOUDY    61  36  39 N5        29.92R
MALMSTROM AFB  CLOUDY    57  37  47 SW15G22   29.85R
* CONRAD       CLOUDY    55  43  64 SE14G22    N/A
* DEARBORN     N/A       59  36  42 S12G26     N/A
* EAST GLACIER N/A       42  39  89 W27G37     N/A
* MONARCH      N/A       51  23  33 SW14G20    N/A
* PENDROY      N/A       53  39  59 SW10G15    N/A
* ROGERS PASS  N/A       45  38  77 SE22G35    N/A
* SWEET GRASS  N/A       54  36  51 SW29G36    N/A
* WHITE SULPH  N/A       54  31  42 S9G17      N/A
$$

MTZ011-013-016-021-035-040-045-047-050-051-231800-
NORTH CENTRAL MONTANA
CITY           SKY/WX    TMP DP  RH WIND       PRES   REMARKS
HAVRE          CLOUDY    63  37  38 SW18      29.77R
LEWISTOWN      PTSUNNY   63  34  34 SW14      29.87S
* CHINOOK      CLOUDY    64  37  37 SW18G26   29.74S
* FORT BENTON  CLOUDY    61  34  36 S12G18    29.80R
* CHESTER      N/A       54  39  57 SW4G11     N/A
* DENTON       N/A       63  35  35 SW16G24    N/A
* GEYSER       N/A       57  31  37 W24G35     N/A
* JUDITH GAP   N/A       57  34  42 SW27G35    N/A
* LOMA         N/A       61  35  38 SW16G24    N/A
$$

MTZ017>020-022>027-061-062-231800-
NORTHEAST MONTANA
CITY           SKY/WX    TMP DP  RH WIND       PRES   REMARKS
GLASGOW        CLOUDY    54  37  53 SE7       29.79S
GLENDIVE       PTSUNNY   54  30  40 SW9       29.88S
JORDAN         PTCLDY    63  30  29 W8        29.82F
SIDNEY         PTCLDY    55  36  49 SE10      29.84F
WOLF POINT     CLOUDY    48  36  63 CALM      29.81F
* BEAVER HILL  N/A       59  30  33 S16        N/A
* CIRCLE       N/A       52  35  52 SW7        N/A
* LINDSAY DVD  N/A       56  28  34 SW12G19    N/A
* NAVAJO       N/A       57  33  40 SW9        N/A
$$

MTZ028>042-056>058-231800-
SOUTHCENTRAL AND SOUTHEAST MONTANA
CITY           SKY/WX    TMP DP  RH WIND       PRES   REMARKS
BAKER          CLOUDY    61  27  27 W10       29.90F
BILLINGS       PTSUNNY   61  25  25 SW9       29.90S
LIVINGSTON     PTSUNNY   64  27  25 SW31G43   29.95R
MILES CITY     PTCLDY    50  30  46 S10       29.88F
* LAUREL APT   PTSUNNY   61  25  25 SW16G21    N/A
* ROUNDUP APT  PTSUNNY   57  28  33 SW15       N/A
* ALZADA       N/A       59  28  31 S1         N/A
* HYSHAM       N/A       56  26  32 W6         N/A
* LAME DEER    N/A       63  27  26 SW4G11     N/A
* REED POINT   N/A       51  32  48 S4G11      N/A
* ROSCOE HILL  N/A       56  25  30 N10        N/A
$$

REGIONAL REPORTS...DAKOTAS
CITY           SKY/WX    TMP DP  RH WIND       PRES   REMARKS
WILLISTON      PTCLDY    50  34  54 SW9       29.82F
DICKINSON      SUNNY     64  32  30 SW12      29.86F
BEACH          N/A       63  28  27 SW12      29.88F
CROSBY         SUNNY     54  36  51 S15       29.79F
TIOGA          SUNNY     54  32  43 SW10      29.84F
BISMARCK       SUNNY     59  36  42 SW9       29.91S
GRAND FORKS    SUNNY     63  41  45 SW9       29.85F
FARGO          SUNNY     57  45  64 S12       29.91F
BUFFALO SD     PTCLDY    57  32  39 SE9       29.85F
RAPID CITY     CLOUDY    55  34  45 SE5       29.96F
$$

REGIONAL REPORTS...WYOMING/IDAHO/WASHINGTON
CITY           SKY/WX    TMP DP  RH WIND       PRES   REMARKS
GILLETTE       CLOUDY    61  23  23 SW15      29.95F
SHERIDAN       CLOUDY    57  30  36 CALM      29.93F
CODY           PTSUNNY  N/A N/A N/A N/A        N/A
YELLOWSTONE LA PTCLDY    45  21  38 VRB6      30.19S
SALMON         CLOUDY   N/A N/A N/A N/A        N/A
MULLAN PASS    LGT RAIN  39  39 100 S14G25    29.85S VSB M1/4 WCI  31
SAND POINT     RAIN      50  50 100 CALM      29.81S
SPOKANE        CLOUDY    52  50  93 S9        29.79F
$$

REGIONAL REPORTS...ALBERTA
CITY           SKY/WX    TMP DP  RH WIND       PRES   REMARKS
CALGARY        SUNNY     55  34  45 VRB2      29.54R
LETHBRIDGE     PTCLDY    57  37  47 SW26G35   29.65S
MEDICINE HAT   PTSUNNY   59  41  51 SW21G32   29.66S
EDMONTON       PTSUNNY   46  32  58 W7        29.41F
WATERTON GATE  N/A       46  41  83 SW17G25    N/A
CARDSTON       N/A       52  37  57 SW10G23    N/A
MILK RIVER     N/A       57  39  51 SW20G29    N/A
$$

REGIONAL REPORTS...SASKATCHEWAN
CITY           SKY/WX    TMP DP  RH WIND       PRES   REMARKS
SWIFT CURRENT  PTSUNNY   52  39  61 S13       29.67F
MOOSE JAW      PTSUNNY   54  39  57 S7        29.70F
REGINA         CLOUDY    46  41  83 SE9       29.71F
VAL MARIE      N/A       50  37  61 S7         N/A
ASSINIBOIA     N/A       55  36  49 SW13       N/A
CORONACH       N/A       55  34  45 S8         N/A

$$




USA.gov is the U.S. government's official web portal to all federal, state and local government web resources and services.